Airfield :
LOGIN :

Register | Disclaimer

   EN    FR    IT 

 










Legend :    VFR   Marginal VFR   IFR   Intensive IFR   Very Intensive IFR
Visi :
Ceiling :
>= 8 km
>= 3000ft
5 to 8 km
1000 to 3000 ft
1500m to 5 km
500 to 1000 ft
800 to 1500m
200 to 500 ft
< 800m
< 200 ft
Symbols :   Thunderstorms  Fog  Heavy snow  Heavy precipitations  Wind > 20 kt
SIGMETs :     Misc.  Thunderstorms  Icing  Turbulence  Mountain Waves  Volcanic Ashes






- Airport Elevation : 545 ft
- IATA code : PZY


LZPP - Piešťany

CURRENT METAR :
  • 310400Z 35012KT 9999 -RA SCT045 OVC070 11/07 Q1014

EXPIRED METARs :
  • 310330Z AUTO 34013KT 9999 FEW044/// SCT055/// BKN078/// 11/07 Q1014
  • 310300Z AUTO 35011KT 9999 BKN064/// OVC074/// 11/07 Q1014
  • 310230Z AUTO 34008KT 9999 SCT073/// BKN085/// OVC100/// 11/07 Q1014
  • 310200Z AUTO 33007KT 9999 FEW093/// OVC130/// 10/07 Q1015

Expired Forecast.



MET'MAP, your aeronautical weather chart ! - Copyright ORBIFLY December 2007 - Disclaimer

ORBIFLY MET'MAP TEAM :

Programming & Development : Alexandra Zaïnal
Concept & original design : Baudouin d'Aumeries
Assistance for programming : Marc-Olivier Méhu
Technical & hardware support : Manuel Goepfert

Contact : metmap@orbifly.com




SOURCES & CREDITS :

   NOAA